When you browse on this site, cookies collect data to enhance your experience and personalize the content and advertising you see.
Visit our Privacy Policy to learn more. By continuing to use the site, you agree to this use of cookies and data.
  • en Suisse
  • Liste des pays
  • À 7 jours
  • Température de l'eau
  • Carte satellitaire
  • Carte météo
  • Widgets météo
  • user-avatar
    Se connecter

    Météo par heure à Algérie

    Ce jour, 21 Mars, Jeudi

    Heure Température Précipitation Vent Pression Humidité
    00:00 +11°C° 0.2 mm 1 m/s 754 mmHg 74%
    01:00 +11°C° 0.2 mm 1 m/s 754 mmHg 76%
    02:00 +11°C° 0.2 mm 1 m/s 754 mmHg 77%
    03:00 +10°C° 0.2 mm 1 m/s 753 mmHg 79%
    04:00 +10°C° 0.3 mm 1 m/s 753 mmHg 80%
    05:00 +10°C° 0.3 mm 1 m/s 753 mmHg 81%
    06:00 +10°C° 0.3 mm 2 m/s 753 mmHg 82%
    07:00 +10°C° 0.3 mm 3 m/s 753 mmHg 81%
    08:00 +11°C° 0.3 mm 3 m/s 753 mmHg 80%
    09:00 +11°C° 0.3 mm 4 m/s 753 mmHg 79%
    10:00 +10°C° 1.8 mm 5 m/s 753 mmHg 81%
    11:00 +10°C° 1.8 mm 5 m/s 753 mmHg 83%
    12:00 +10°C° 1.8 mm 6 m/s 753 mmHg 85%
    13:00 +10°C° 2.4 mm 6 m/s 752 mmHg 85%
    14:00 +10°C° 2.4 mm 6 m/s 752 mmHg 85%
    15:00 +10°C° 2.4 mm 6 m/s 752 mmHg 86%
    16:00 +10°C° 0.7 mm 6 m/s 752 mmHg 85%
    17:00 +10°C° 0.7 mm 5 m/s 752 mmHg 85%
    18:00 +12°C° 0.7 mm 5 m/s 752 mmHg 84%
    19:00 +12°C° 0.2 mm 5 m/s 753 mmHg 84%
    20:00 +12°C° 0.2 mm 5 m/s 753 mmHg 85%
    21:00 +12°C° 0.2 mm 4 m/s 754 mmHg 86%
    22:00 +12°C° 0.4 mm 4 m/s 754 mmHg 86%
    23:00 +12°C° 0.4 mm 4 m/s 754 mmHg 87%

    Demain, 22 Mars, Vendredi

    Heure Température Précipitation Vent Pression Humidité
    00:00 +12°C° 0.4 mm 4 m/s 754 mmHg 87%
    01:00 +12°C° 0.2 mm 4 m/s 754 mmHg 87%
    02:00 +12°C° 0.2 mm 4 m/s 753 mmHg 87%
    03:00 +12°C° 0.2 mm 4 m/s 753 mmHg 86%
    04:00 +12°C° 0.3 mm 4 m/s 753 mmHg 87%
    05:00 +12°C° 0.3 mm 4 m/s 753 mmHg 87%
    06:00 +12°C° 0.3 mm 3 m/s 753 mmHg 87%
    07:00 +13°C° 0.5 mm 4 m/s 753 mmHg 84%
    08:00 +13°C° 0.5 mm 4 m/s 753 mmHg 81%
    09:00 +14°C° 0.5 mm 4 m/s 754 mmHg 78%
    10:00 +14°C° 0.4 mm 4 m/s 754 mmHg 78%
    11:00 +14°C° 0.4 mm 4 m/s 754 mmHg 78%
    12:00 +14°C° 0.4 mm 5 m/s 754 mmHg 78%
    13:00 +14°C° 0.5 mm 5 m/s 753 mmHg 76%
    14:00 +15°C° 0.5 mm 5 m/s 753 mmHg 73%
    15:00 +15°C° 0.5 mm 5 m/s 753 mmHg 71%
    16:00 +14°C° 0.5 mm 5 m/s 753 mmHg 75%
    17:00 +14°C° 0.5 mm 5 m/s 753 mmHg 79%
    18:00 +13°C° 0.5 mm 5 m/s 753 mmHg 83%
    19:00 +13°C° 0.2 mm 5 m/s 754 mmHg 84%
    20:00 +13°C° 0.2 mm 4 m/s 754 mmHg 85%
    21:00 +12°C° 0.2 mm 4 m/s 755 mmHg 86%
    22:00 +12°C° 0 mm 3 m/s 755 mmHg 86%
    23:00 +12°C° 0 mm 3 m/s 755 mmHg 86%

    Après-demain, 23 Mars, Samedi

    Heure Température Précipitation Vent Pression Humidité
    00:00 +12°C° 0 mm 2 m/s 755 mmHg 86%
    01:00 +12°C° 0 mm 2 m/s 755 mmHg 86%
    02:00 +12°C° 0 mm 2 m/s 755 mmHg 86%
    03:00 +12°C° 0 mm 1 m/s 754 mmHg 86%
    04:00 +12°C° 0.1 mm 1 m/s 754 mmHg 85%
    05:00 +12°C° 0.1 mm 1 m/s 755 mmHg 85%
    06:00 +12°C° 0.1 mm 1 m/s 755 mmHg 84%
    07:00 +13°C° 0 mm 1 m/s 755 mmHg 78%
    08:00 +14°C° 0 mm 1 m/s 755 mmHg 73%
    09:00 +14°C° 0 mm 0 m/s 755 mmHg 67%
    10:00 +16°C° 0 mm 1 m/s 755 mmHg 65%
    11:00 +16°C° 0 mm 2 m/s 754 mmHg 64%
    12:00 +17°C° 0 mm 3 m/s 754 mmHg 63%
    13:00 +17°C° 0 mm 3 m/s 754 mmHg 63%
    14:00 +17°C° 0 mm 3 m/s 753 mmHg 64%
    15:00 +17°C° 0 mm 4 m/s 753 mmHg 65%
    16:00 +15°C° 0 mm 4 m/s 753 mmHg 69%
    17:00 +15°C° 0 mm 4 m/s 753 mmHg 74%
    18:00 +14°C° 0 mm 4 m/s 753 mmHg 78%
    19:00 +13°C° 0 mm 3 m/s 753 mmHg 80%
    20:00 +13°C° 0 mm 3 m/s 753 mmHg 82%
    21:00 +13°C° 0 mm 3 m/s 754 mmHg 84%
    22:00 +12°C° 0 mm 3 m/s 754 mmHg 83%
    23:00 +13°C° 0 mm 2 m/s 753 mmHg 83%

    24 Mars, Dimanche

    Heure Température Précipitation Vent Pression Humidité
    00:00 +13°C° 0 mm 2 m/s 753 mmHg 83%
    01:00 +13°C° 0 mm 2 m/s 753 mmHg 81%
    02:00 +13°C° 0 mm 2 m/s 753 mmHg 80%
    03:00 +13°C° 0 mm 2 m/s 752 mmHg 79%
    04:00 +13°C° 0 mm 2 m/s 752 mmHg 76%
    05:00 +12°C° 0 mm 3 m/s 753 mmHg 74%
    06:00 +12°C° 0 mm 3 m/s 753 mmHg 72%
    07:00 +14°C° 0 mm 3 m/s 753 mmHg 66%
    08:00 +16°C° 0 mm 2 m/s 753 mmHg 59%
    09:00 +18°C° 0 mm 2 m/s 753 mmHg 52%
    10:00 +20°C° 0 mm 2 m/s 753 mmHg 48%
    11:00 +21°C° 0 mm 2 m/s 753 mmHg 44%
    12:00 +23°C° 0 mm 2 m/s 752 mmHg 40%
    13:00 +22°C° 0 mm 3 m/s 752 mmHg 40%
    14:00 +22°C° 0 mm 3 m/s 752 mmHg 40%
    15:00 +22°C° 0 mm 3 m/s 751 mmHg 39%
    16:00 +21°C° 0 mm 4 m/s 751 mmHg 45%
    17:00 +20°C° 0 mm 4 m/s 751 mmHg 51%
    18:00 +19°C° 0 mm 5 m/s 751 mmHg 56%
    19:00 +18°C° 0 mm 4 m/s 752 mmHg 55%
    20:00 +18°C° 0 mm 4 m/s 752 mmHg 55%
    21:00 +17°C° 0 mm 4 m/s 752 mmHg 54%
    22:00 +17°C° 0 mm 3 m/s 752 mmHg 53%
    23:00 +17°C° 0 mm 3 m/s 752 mmHg 52%

    25 Mars, Lundi

    Heure Température Précipitation Vent Pression Humidité
    00:00 +16°C° 0 mm 3 m/s 752 mmHg 51%
    01:00 +16°C° 0 mm 3 m/s 751 mmHg 52%
    02:00 +16°C° 0 mm 3 m/s 751 mmHg 53%
    03:00 +16°C° 0 mm 3 m/s 751 mmHg 54%
    04:00 +14°C° 0 mm 3 m/s 751 mmHg 55%
    05:00 +14°C° 0 mm 3 m/s 751 mmHg 55%
    06:00 +14°C° 0 mm 3 m/s 751 mmHg 56%
    07:00 +16°C° 0 mm 3 m/s 752 mmHg 53%
    08:00 +18°C° 0 mm 2 m/s 752 mmHg 50%
    09:00 +19°C° 0 mm 2 m/s 752 mmHg 47%
    10:00 +20°C° 0 mm 2 m/s 752 mmHg 43%
    11:00 +23°C° 0 mm 2 m/s 751 mmHg 39%
    12:00 +24°C° 0 mm 2 m/s 751 mmHg 36%
    13:00 +22°C° 0 mm 3 m/s 750 mmHg 38%
    14:00 +22°C° 0 mm 4 m/s 750 mmHg 40%
    15:00 +22°C° 0 mm 5 m/s 750 mmHg 42%
    16:00 +20°C° 0 mm 5 m/s 749 mmHg 48%
    17:00 +19°C° 0 mm 4 m/s 749 mmHg 54%
    18:00 +18°C° 0 mm 4 m/s 749 mmHg 60%
    19:00 +17°C° 0 mm 4 m/s 750 mmHg 61%
    20:00 +17°C° 0 mm 3 m/s 750 mmHg 62%
    21:00 +16°C° 0 mm 3 m/s 750 mmHg 63%
    22:00 +16°C° 0 mm 3 m/s 750 mmHg 62%
    23:00 +16°C° 0 mm 3 m/s 750 mmHg 61%

    26 Mars, Mardi

    Heure Température Précipitation Vent Pression Humidité
    00:00 +16°C° 0 mm 2 m/s 750 mmHg 60%
    01:00 +16°C° 0 mm 2 m/s 750 mmHg 58%
    02:00 +16°C° 0 mm 2 m/s 750 mmHg 56%
    03:00 +16°C° 0 mm 2 m/s 749 mmHg 54%
    04:00 +16°C° 0 mm 2 m/s 750 mmHg 55%
    05:00 +15°C° 0 mm 2 m/s 750 mmHg 55%
    06:00 +14°C° 0 mm 3 m/s 750 mmHg 55%
    07:00 +17°C° 0 mm 3 m/s 750 mmHg 52%
    08:00 +18°C° 0 mm 3 m/s 750 mmHg 50%
    09:00 +20°C° 0 mm 3 m/s 750 mmHg 47%
    10:00 +20°C° 0 mm 4 m/s 750 mmHg 48%
    11:00 +21°C° 0 mm 5 m/s 750 mmHg 49%
    12:00 +21°C° 0 mm 6 m/s 750 mmHg 49%
    13:00 +21°C° 0 mm 6 m/s 750 mmHg 52%
    14:00 +21°C° 0 mm 6 m/s 749 mmHg 55%
    15:00 +20°C° 0 mm 7 m/s 749 mmHg 58%
    16:00 +18°C° 0 mm 7 m/s 749 mmHg 62%
    17:00 +17°C° 0 mm 7 m/s 749 mmHg 67%
    18:00 +16°C° 0 mm 7 m/s 750 mmHg 72%
    19:00 +15°C° 0 mm 6 m/s 750 mmHg 73%
    20:00 +15°C° 0 mm 6 m/s 751 mmHg 74%
    21:00 +14°C° 0 mm 6 m/s 751 mmHg 75%
    22:00 +14°C° 0 mm 5 m/s 751 mmHg 75%
    23:00 +14°C° 0 mm 5 m/s 751 mmHg 75%
    Voir plus